Beatrice, NE

11:40 AM CDT on April 29, 2017 (GMT -0500)
Beatrice Municipal

Weather History for KBIE - January, 2006

Change the Weather History Date:

Tuesday, January 3, 2006

  Actual Average Record
Temperature  
Mean Temperature 38 °F -  
Max Temperature 51 °F 29 °F 58 °F (1955)
Min Temperature 24 °F 9 °F -8 °F (1968)
Degree Days  
Heating Degree Days 28    
Moisture  
Dew Point 31 °F    
Average Humidity 85    
Maximum Humidity 100    
Minimum Humidity 58    
Precipitation  
Precipitation 0.00 in - - ()
Sea Level Pressure  
Sea Level Pressure 29.80 in    
Wind  
Wind Speed 5 mph (SSE)    
Max Wind Speed 18 mph    
Max Gust Speed 24 mph    
Visibility 5 miles    
Events Fog    
Averages and records for this station are not official NWS values.
T = Trace of Precipitation, MM = Missing Value Source: NWS Daily Summary

Daily Weather History Graph

Daily Weather History Graph

Search for Another Location

Airport or City:

Trip Planner

Search our weather history database for the weather conditions in past years. The results will help you decide how hot, cold, wet, or windy it might be!

Date:

Astronomy

Jan. 03, 2006 Rise Set
Actual Time 7:50 AM CST 5:13 PM CST
Civil Twilight 7:19 AM CST 5:43 PM CST
Nautical Twilight 6:45 AM CST 6:17 PM CST
Astronomical Twilight 6:12 AM CST 6:50 PM CST
Moon 10:44 AM CST (1/3) 9:42 PM CST (1/3)
Length of Visible Light 10h 24m
Length of Day
9h 23m
Waxing Crescent, 18% of the Moon is Illuminated
Jan 3
Waxing Crescent
Jan 6
First Quarter
Jan 14
Full
Jan 22
Last Quarter
Jan 29
New

Hourly Weather History & Observations

Time (CST) Temp. Windchill Dew Point Humidity Pressure Visibility Wind Dir Wind Speed Gust Speed Precip Events Conditions
12:10 AM 28.4 °F - 26.6 °F 93% 29.95 in 2.5 mi Calm Calm - N/A   Clear
12:30 AM 26.6 °F - 26.6 °F 100% 29.95 in 3.0 mi Calm Calm - N/A   Clear
12:50 AM 26.6 °F - 26.6 °F 100% 29.94 in 3.0 mi Calm Calm - N/A   Clear
1:10 AM 26.6 °F 22.6 °F 26.6 °F 100% 29.92 in 2.5 mi East 3.5 mph - N/A   Clear
1:30 AM 26.6 °F 21.2 °F 24.8 °F 93% 29.92 in 1.5 mi East 4.6 mph - N/A   Mostly Cloudy
1:50 AM 26.6 °F - 26.6 °F 100% 29.93 in 0.5 mi Calm Calm - N/A Fog Light Freezing Fog
2:10 AM 26.6 °F 21.2 °F 26.6 °F 100% 29.91 in 0.2 mi East 4.6 mph - N/A Fog Light Freezing Fog
2:30 AM 26.6 °F - 26.6 °F 100% 29.92 in 1.8 mi Calm Calm - N/A   Scattered Clouds
2:50 AM 26.6 °F - 26.6 °F 100% 29.95 in 2.0 mi Calm Calm - N/A   Clear
3:10 AM 26.6 °F 22.6 °F 26.6 °F 100% 29.93 in 2.5 mi East 3.5 mph - N/A   Clear
3:30 AM 26.6 °F 22.6 °F 24.8 °F 93% 29.93 in 2.5 mi East 3.5 mph - N/A   Clear
3:50 AM 24.8 °F 19.1 °F 23.0 °F 93% 29.92 in 2.5 mi East 4.6 mph - N/A   Mostly Cloudy
4:10 AM 24.8 °F 17.9 °F 24.8 °F 100% 29.90 in 1.8 mi East 5.8 mph - N/A   Overcast
4:30 AM 26.6 °F 21.2 °F 26.6 °F 100% 29.90 in 0.5 mi ESE 4.6 mph - N/A Fog Light Freezing Fog
4:50 AM 26.6 °F 20.0 °F 26.6 °F 100% 29.88 in 0.5 mi ESE 5.8 mph - N/A Fog Light Freezing Fog
5:10 AM 26.6 °F 22.6 °F 26.6 °F 100% 29.89 in 1.8 mi SSE 3.5 mph - N/A   Overcast
5:30 AM 26.6 °F - 26.6 °F 100% 29.89 in 2.0 mi Calm Calm - N/A   Overcast
5:50 AM 26.6 °F 22.6 °F 26.6 °F 100% 29.90 in 1.5 mi SSE 3.5 mph - N/A   Overcast
6:10 AM 28.4 °F 22.2 °F 26.6 °F 93% 29.89 in 0.5 mi SE 5.8 mph - N/A Fog Light Freezing Fog
6:30 AM 28.4 °F 23.3 °F 28.4 °F 100% 29.89 in 0.5 mi SE 4.6 mph - N/A Fog Light Freezing Fog
6:50 AM 28.4 °F 23.3 °F 28.4 °F 100% 29.89 in 1.2 mi SE 4.6 mph - N/A   Overcast
7:10 AM 28.4 °F 22.2 °F 26.6 °F 93% 29.89 in 2.5 mi SE 5.8 mph - N/A   Scattered Clouds
7:30 AM 26.6 °F 20.0 °F 26.6 °F 100% 29.88 in 2.5 mi ESE 5.8 mph - N/A   Clear
7:50 AM 28.4 °F 21.2 °F 28.4 °F 100% 29.88 in 2.5 mi SE 6.9 mph - N/A   Clear
8:10 AM 28.4 °F 21.2 °F 28.4 °F 100% 29.86 in 2.0 mi SE 6.9 mph - N/A   Clear
8:30 AM 30.2 °F 23.4 °F 30.2 °F 100% 29.86 in 2.0 mi SE 6.9 mph - N/A   Clear
8:50 AM 30.2 °F 22.6 °F 30.2 °F 100% 29.86 in 2.0 mi SSE 8.1 mph - N/A   Clear
9:10 AM 32.0 °F 25.6 °F 32.0 °F 100% 29.86 in 2.0 mi SE 6.9 mph - N/A   Clear
9:30 AM 32.0 °F 25.6 °F 32.0 °F 100% 29.85 in 2.0 mi SE 6.9 mph - N/A   Clear
9:50 AM 33.8 °F 25.8 °F 32.0 °F 93% 29.84 in 2.5 mi SSE 10.4 mph - N/A   Clear
10:10 AM 33.8 °F 26.4 °F 33.8 °F 100% 29.84 in 3.0 mi SSE 9.2 mph - N/A   Clear
10:30 AM 35.6 °F 28.0 °F 33.8 °F 93% 29.83 in 3.0 mi SSE 10.4 mph - N/A   Clear
10:50 AM 37.4 °F 30.3 °F 33.8 °F 87% 29.81 in 4.0 mi SSE 10.4 mph 18.4 mph N/A   Clear
11:10 AM 39.2 °F 31.2 °F 33.8 °F 81% 29.80 in 5.0 mi SSE 13.8 mph 18.4 mph N/A   Haze
11:30 AM 41.0 °F 33.1 °F 35.6 °F 81% 29.78 in 5.0 mi SSE 15.0 mph 19.6 mph N/A   Haze
11:50 AM 41.0 °F 34.3 °F 35.6 °F 81% 29.76 in 7.0 mi SSE 11.5 mph 20.7 mph N/A   Clear
12:10 PM 42.8 °F 37.5 °F 35.6 °F 76% 29.75 in 7.0 mi SSE 9.2 mph - N/A   Clear
12:30 PM 44.6 °F 39.2 °F 37.4 °F 76% 29.73 in 7.0 mi South 10.4 mph 17.3 mph N/A   Clear
12:50 PM 46.4 °F 40.1 °F 35.6 °F 66% 29.70 in 10.0 mi South 15.0 mph 21.9 mph N/A   Clear
1:10 PM 46.4 °F 39.2 °F 35.6 °F 66% 29.69 in 10.0 mi South 18.4 mph 23.0 mph N/A   Clear
1:30 PM 46.4 °F 39.8 °F 35.6 °F 66% 29.70 in 10.0 mi South 16.1 mph 19.6 mph N/A   Clear
1:50 PM 46.4 °F 40.1 °F 35.6 °F 66% 29.68 in 10.0 mi South 15.0 mph 24.2 mph N/A   Clear
2:10 PM 48.2 °F - 37.4 °F 66% 29.64 in 10.0 mi SSE 10.4 mph 18.4 mph N/A   Clear
2:30 PM 48.2 °F - 37.4 °F 66% 29.64 in 10.0 mi South 16.1 mph - N/A   Clear
2:50 PM 50.0 °F - 37.4 °F 62% 29.65 in 10.0 mi South 10.4 mph - N/A   Clear
3:10 PM 50.0 °F - 37.4 °F 62% 29.64 in 10.0 mi South 18.4 mph 23.0 mph N/A   Clear
3:30 PM 51.8 °F - 37.4 °F 58% 29.64 in 10.0 mi South 18.4 mph 24.2 mph N/A   Clear
3:50 PM 51.8 °F - 37.4 °F 58% 29.63 in 10.0 mi South 17.3 mph 23.0 mph N/A   Clear
4:10 PM 51.8 °F - 37.4 °F 58% 29.62 in 10.0 mi South 13.8 mph 20.7 mph N/A   Clear
4:30 PM 51.8 °F - 37.4 °F 58% 29.63 in 10.0 mi South 12.7 mph - N/A   Clear
4:50 PM 51.8 °F - 37.4 °F 58% 29.65 in 10.0 mi South 10.4 mph - N/A   Clear
5:10 PM 51.8 °F - 37.4 °F 58% 29.65 in 10.0 mi SSW 6.9 mph - N/A   Clear
5:30 PM 50.0 °F - 35.6 °F 58% 29.65 in 10.0 mi SSW 9.2 mph - N/A   Clear
5:50 PM 46.4 °F 43.5 °F 35.6 °F 66% 29.65 in 10.0 mi SSW 5.8 mph - N/A   Clear
6:10 PM 44.6 °F 40.2 °F 35.6 °F 71% 29.65 in 10.0 mi SSW 8.1 mph - N/A   Clear
6:30 PM 42.8 °F 38.0 °F 35.6 °F 76% 29.65 in 10.0 mi SSW 8.1 mph - N/A   Clear
6:50 PM 44.6 °F 40.2 °F 35.6 °F 71% 29.65 in 10.0 mi South 8.1 mph - N/A   Clear
7:10 PM 44.6 °F 40.2 °F 35.6 °F 71% 29.66 in 10.0 mi South 8.1 mph - N/A   Clear
7:30 PM 42.8 °F 38.0 °F 33.8 °F 70% 29.66 in 10.0 mi SSW 8.1 mph - N/A   Clear
7:50 PM 44.6 °F 40.2 °F 33.8 °F 66% 29.67 in 10.0 mi SSW 8.1 mph - N/A   Clear
8:10 PM 42.8 °F 40.1 °F 33.8 °F 70% 29.67 in 10.0 mi SW 4.6 mph - N/A   Clear
8:30 PM 44.6 °F 39.7 °F 33.8 °F 66% 29.67 in 10.0 mi WSW 9.2 mph - N/A   Clear
8:50 PM 46.4 °F 41.9 °F 33.8 °F 62% 29.67 in 10.0 mi WSW 9.2 mph - N/A   Clear
9:10 PM 50.0 °F - 33.8 °F 54% 29.68 in 10.0 mi West 16.1 mph - N/A   Clear
9:30 PM 48.2 °F - 33.8 °F 58% 29.68 in 10.0 mi West 15.0 mph - N/A   Clear
9:50 PM 48.2 °F - 33.8 °F 58% 29.69 in 10.0 mi West 16.1 mph - N/A   Clear
10:10 PM 48.2 °F - 33.8 °F 58% 29.71 in 10.0 mi West 16.1 mph 21.9 mph N/A   Clear
10:30 PM 46.4 °F 39.5 °F 33.8 °F 62% 29.73 in 10.0 mi WNW 17.3 mph - N/A   Clear
10:50 PM 46.4 °F 39.8 °F 33.8 °F 62% 29.76 in 10.0 mi NW 16.1 mph 20.7 mph N/A   Clear
11:10 PM 42.8 °F 32.9 °F 33.8 °F 70% 29.78 in 10.0 mi NW 26.5 mph 32.2 mph N/A   Clear
11:30 PM 41.0 °F 32.2 °F 33.8 °F 76% 29.80 in 10.0 mi NW 18.4 mph 24.2 mph N/A   Clear
11:50 PM 39.2 °F 31.2 °F 33.8 °F 81% 29.81 in 10.0 mi NNW 13.8 mph 24.2 mph N/A   Mostly Cloudy